Temperature
25 21 21 22 22 23 23 23 23 23 24 23 22 21 21 21 21 21 21 20 20 20 20 19 19 19 19 18 18 18 18 17 17 16 16 16 16 16 16 15 15 15 15 15
22 21 23 24 24 24 24 23 23 23 24 23 21 21 21 21 21 21 20 20 20 19 19 19 19 18 18 18 18 17 17 17 17 16 16 16 16 15 15 15 15 15 15 15
22 23 25 25 24 24 24 23 23 23 23 23 22 21 21 21 21 21 20 20 20 19 19 19 19 18 18 18 18 17 17 17 16 16 16 15 15 15 15 15 15 15 15 15
23 24 25 25 24 24 23 24 24 24 22 21 22 20 20 20 19 19 20 20 20 19 19 19 19 18 18 18 17 17 17 17 16 16 16 15 15 15 15 15 14 14 14 14
23 24 24 24 25 25 24 24 24 24 22 21 21 19 19 19 19 19 19 20 20 20 19 19 19 18 18 18 17 17 16 16 16 16 15 15 15 15 14 14 14 14 14 14
24 25 25 25 26 25 25 23 22 21 19 20 21 20 19 18 19 19 19 19 19 19 19 19 18 18 18 17 17 16 16 16 16 15 15 15 15 14 14 14 14 14 14 14
23 24 25 26 25 24 23 21 20 20 19 19 20 19 19 19 20 20 19 20 19 19 19 18 18 18 17 17 17 16 16 16 15 15 15 15 14 14 14 14 14 14 14 14
22 22 24 25 25 24 23 21 20 20 19 19 20 19 19 20 20 20 20 20 19 19 19 18 18 18 17 17 17 16 15 15 15 15 15 14 14 14 14 14 13 13 13 13
22 22 24 25 25 24 23 21 20 19 19 19 19 19 19 19 19 19 19 19 19 19 18 18 18 17 17 17 16 16 15 15 15 14 14 14 14 14 13 13 13 13 13 13
22 22 23 25 25 24 23 22 19 19 19 19 19 19 18 18 18 18 18 18 18 18 18 18 18 17 17 16 16 15 15 15 15 14 14 14 14 13 13 13 13 13 13 12
22 21 22 23 23 23 23 22 19 18 18 18 18 18 19 18 17 17 17 18 18 18 18 17 17 17 16 16 16 15 15 15 14 14 14 14 14 13 13 13 13 13 12 12
21 19 20 21 23 24 23 22 19 19 19 17 17 17 19 17 17 17 18 18 18 18 17 17 17 16 16 16 15 15 15 15 14 14 14 14 13 13 13 13 12 12 12 12
21 19 19 20 21 22 23 23 21 18 17 17 17 18 18 17 17 17 18 18 17 17 17 16 16 16 15 15 15 15 15 14 14 14 14 14 13 13 13 13 12 12 12 12
21 18 19 20 20 21 22 22 22 19 17 17 18 17 17 16 16 16 17 17 17 17 16 16 16 15 15 15 15 14 14 14 14 14 14 13 13 13 13 12 12 12 12 12
20 19 20 21 22 22 22 22 22 20 19 18 18 17 17 16 16 16 17 16 16 16 16 15 15 15 15 15 15 14 14 14 14 13 13 13 13 13 13 12 12 12 12 12
18 20 20 21 22 22 22 22 22 21 20 19 18 17 17 17 17 16 16 16 16 15 15 15 15 15 15 14 14 14 14 14 14 13 13 13 13 13 12 12 12 12 12 12
18 18 19 19 21 21 20 21 21 20 20 19 17 17 16 15 16 16 16 16 16 15 15 15 15 14 14 14 14 14 14 14 13 13 13 13 12 12 12 12 12 12 12 12
18 17 16 18 19 19 20 21 21 20 19 19 17 16 16 16 16 17 16 16 15 15 15 15 14 14 14 14 14 14 14 13 13 13 13 12 12 12 12 12 12 12 12 12
18 17 17 16 18 19 20 20 20 19 18 18 17 16 16 16 16 15 16 16 16 15 15 15 14 14 14 14 14 13 13 13 13 13 12 12 12 12 12 12 12 12 12 12
17 17 17 17 18 18 19 20 21 18 17 17 17 16 16 16 13 14 16 16 16 15 15 15 14 14 14 14 13 13 13 13 13 12 12 12 12 12 12 12 12 12 12 12
18 17 17 17 17 17 19 20 20 18 17 17 17 17 16 15 15 16 16 16 15 15 15 14 14 14 14 13 13 13 13 12 12 12 12 12 12 12 12 12 12 12 12 12
17 16 16 16 16 17 19 19 18 16 18 18 17 17 17 16 16 16 15 15 15 15 14 14 14 14 13 13 13 13 12 12 12 12 12 12 12 12 12 12 12 11 11 11
17 16 15 15 16 17 18 18 19 19 18 18 17 17 17 16 16 15 15 15 14 14 14 14 13 13 13 13 13 12 12 12 12 12 12 12 12 12 12 12 12 11 11 11
17 17 15 15 16 17 18 18 19 19 18 18 18 17 17 16 16 15 15 14 14 14 14 13 13 13 13 13 12 12 12 12 12 12 12 12 12 12 11 11 11 11 11 11
17 17 15 15 16 16 17 18 18 18 18 18 18 17 17 16 15 15 15 14 14 14 13 13 13 13 12 12 12 12 12 12 12 12 12 12 12 12 12 11 11 11 11 11
16 16 15 15 16 15 16 17 18 18 17 17 17 16 16 16 15 15 14 14 14 13 13 13 13 12 12 12 12 12 12 12 11 11 11 11 12 12 12 12 11 11 11 11
Wind_Speed
3 2 6 10 10 8 6 5 6 6 3 2 3 4 5 6 7 8 6 6 7 6 5 6 5 5 5 5 5 5 5 3 3 2 2 1 1 1 1 1 2 3 3 3
3 7 13 9 7 5 4 4 5 4 2 1 3 2 3 5 7 8 9 9 9 7 6 5 4 4 5 5 4 4 4 4 3 2 2 2 2 1 2 1 1 2 2 2
9 9 6 4 5 5 6 5 6 5 2 1 3 2 2 2 2 4 6 7 9 10 10 7 6 5 5 5 4 4 3 3 2 2 1 1 1 1 1 1 1 1 2 2
6 8 5 4 6 5 7 8 6 5 2 3 3 3 5 3 1 3 3 5 7 7 8 7 6 5 5 5 4 4 3 2 2 2 2 2 1 1 2 2 2 2 1 2
6 5 4 5 7 5 7 6 5 4 3 2 2 3 5 2 2 4 5 5 6 6 7 7 7 6 5 4 4 3 3 2 1 2 3 2 1 2 1 1 1 2 2 2
8 6 5 6 5 4 3 2 4 3 3 2 5 4 4 4 6 5 5 6 6 5 6 7 6 5 4 4 3 3 3 2 2 2 2 3 3 2 1 1 2 2 2 2
6 6 4 2 2 4 3 4 3 5 3 4 2 3 5 5 6 7 8 8 7 6 5 6 7 6 5 5 4 3 3 3 3 3 3 4 4 4 4 3 3 3 2 2
3 6 5 3 5 4 3 7 6 4 4 4 2 2 4 2 3 3 5 6 5 5 4 6 7 6 6 5 4 3 3 3 3 3 3 2 3 2 3 4 3 3 3 3
4 6 5 4 3 6 2 3 7 6 2 0 1 1 2 2 3 3 3 4 4 4 4 5 5 4 4 4 4 4 4 3 3 3 2 2 2 3 3 4 3 3 3 3
5 3 5 4 1 1 6 5 4 4 3 2 3 3 5 5 4 3 4 4 4 4 4 5 4 4 3 2 2 3 3 3 3 2 2 2 3 3 3 3 3 4 4 4
3 3 5 3 2 5 1 2 4 4 5 5 4 5 6 10 8 7 5 5 5 4 5 5 4 3 3 2 2 2 2 2 2 2 3 2 2 3 3 3 4 4 4 4
2 4 3 6 6 4 5 5 6 4 3 4 4 6 2 8 7 7 6 5 6 5 5 4 4 3 2 2 1 2 2 2 3 3 2 2 2 2 3 4 5 4 4 4
4 5 1 6 6 4 1 1 3 5 4 4 4 5 1 5 5 5 6 5 5 6 5 4 3 3 2 1 0 1 2 2 3 2 2 1 2 3 4 4 4 3 4 4
5 4 6 7 7 3 3 3 1 4 4 4 5 5 3 4 5 4 4 4 4 5 5 4 3 1 1 1 1 1 2 2 2 2 1 2 3 4 5 4 3 3 3 4
5 3 4 5 4 1 1 3 2 3 6 7 6 8 8 7 7 6 5 5 5 5 4 4 2 1 1 1 1 1 2 2 2 2 2 3 4 4 3 3 3 3 3 3
4 3 1 3 2 1 3 3 2 2 2 5 7 3 4 4 5 6 6 6 5 4 3 3 2 1 1 2 2 2 2 3 2 2 2 3 3 3 3 3 3 3 3 3
3 4 2 3 4 3 3 3 3 3 4 7 6 6 7 7 7 7 6 6 5 4 3 2 2 1 1 1 1 1 2 2 2 1 2 2 2 2 2 2 2 3 3 3
6 5 4 1 3 2 5 2 6 6 3 4 7 8 11 9 7 5 6 6 6 4 3 2 1 1 1 1 0 1 2 2 2 2 2 3 2 2 2 2 3 3 3 3
7 7 4 3 2 4 4 2 3 5 1 2 8 9 8 8 7 2 3 6 6 5 4 3 2 1 0 1 0 1 2 2 2 2 3 3 3 2 2 3 4 3 3 4
3 5 6 4 4 5 6 5 1 7 1 1 8 11 10 8 5 3 4 5 5 4 3 2 1 1 2 2 2 2 2 3 3 3 4 3 2 2 3 4 4 3 3 4
1 2 3 4 4 5 5 3 2 4 6 5 8 10 9 6 6 6 6 5 4 4 3 2 2 1 1 1 1 1 2 3 4 4 3 3 3 3 4 4 3 3 3 3
5 4 3 4 3 6 4 2 4 6 4 7 8 8 8 7 7 7 7 6 5 4 3 3 2 1 2 1 1 1 3 4 4 3 4 4 5 4 4 3 4 3 3 3
3 6 5 5 5 4 1 4 4 6 7 6 7 7 9 9 8 7 6 5 4 4 2 2 1 1 2 2 1 2 4 4 3 3 4 4 5 4 4 3 4 3 3 3
2 2 4 2 1 2 3 3 3 6 7 7 9 9 9 9 8 7 5 4 3 2 2 1 1 1 3 3 3 2 3 3 2 4 4 5 5 5 5 3 3 3 3 3
4 1 3 2 1 3 3 3 5 6 8 8 8 8 9 10 8 6 5 4 3 2 1 1 1 1 3 4 3 3 3 3 3 4 5 5 5 4 4 4 4 4 4 4
2 3 5 5 6 5 4 3 6 7 7 8 9 7 7 8 8 7 5 4 3 3 2 1 1 2 3 3 3 4 3 3 3 4 5 5 5 4 4 4 5 6 5 6
Wind_Direction
250 143 230 234 222 221 230 256 275 274 268 78 144 165 187 176 152 153 157 153 149 154 154 147 140 137 128 122 124 130 125 125 126 130 144 154 199 215 218 214 184 169 168 164
329 251 240 236 240 238 237 259 266 281 271 125 132 165 199 179 172 172 169 162 153 144 136 158 148 137 140 145 145 141 135 136 144 168 189 190 191 206 210 230 198 169 174 178
220 245 248 233 253 254 254 231 239 239 314 87 119 336 262 241 165 158 159 160 154 153 153 159 156 152 152 152 158 155 152 141 143 133 106 72 53 24 12 281 250 223 184 178
240 254 254 249 240 218 252 243 227 214 197 252 180 219 257 210 182 176 169 157 160 160 156 157 156 157 163 165 157 149 152 148 142 128 126 135 158 223 243 236 248 256 219 204
244 237 229 237 240 224 234 239 228 228 212 267 287 160 260 196 192 208 191 174 168 172 170 165 162 165 164 156 153 158 155 168 177 165 171 171 200 238 250 246 255 268 271 247
247 243 215 221 245 236 230 358 352 20 66 287 254 175 248 227 199 188 185 175 169 175 176 172 165 156 155 151 150 163 174 199 211 200 197 189 203 222 226 255 251 264 275 270
290 284 262 221 279 319 68 82 14 343 351 258 247 140 239 232 191 181 180 186 180 175 171 169 167 168 167 167 169 181 189 214 224 213 215 213 214 209 214 225 233 245 261 266
231 276 256 228 196 203 196 142 162 211 237 269 322 187 246 222 155 160 170 171 159 156 169 173 173 174 173 173 173 185 212 232 232 221 229 232 217 215 230 230 225 226 236 245
194 251 267 246 217 163 181 208 180 158 208 224 277 220 283 117 111 111 121 143 152 158 154 163 164 157 155 166 179 197 208 229 240 233 222 229 222 218 235 244 235 235 247 250
165 239 284 280 355 257 172 169 97 123 167 250 268 226 214 193 177 141 121 133 158 154 152 150 139 142 143 167 184 193 200 211 219 222 229 238 234 227 228 237 248 251 254 256
129 166 298 336 194 221 187 114 117 135 161 169 232 260 216 184 175 165 159 144 135 132 146 147 146 146 147 156 180 201 208 216 226 232 236 242 257 256 248 247 255 251 249 247
142 134 260 269 259 213 173 173 152 158 223 173 181 258 242 166 167 161 155 142 133 130 135 143 138 131 141 160 169 206 215 231 241 239 239 240 257 264 264 262 260 257 255 249
134 114 31 333 334 352 27 200 160 147 137 162 177 248 188 141 144 155 146 140 131 126 126 121 120 130 152 165 172 266 251 250 249 243 248 277 283 270 267 266 269 270 262 261
125 126 165 206 234 242 273 285 203 134 159 198 205 187 199 168 156 154 149 145 132 118 126 130 138 145 158 167 192 234 263 244 242 254 257 282 275 260 258 269 280 278 266 256
112 151 210 227 234 170 244 273 246 199 193 189 197 176 199 190 173 164 150 128 112 112 114 123 145 168 220 252 257 258 259 257 243 243 259 257 258 264 267 272 275 283 276 266
96 143 167 299 280 40 321 303 243 205 165 147 133 172 193 155 135 136 144 136 128 133 130 127 122 127 256 267 267 284 283 285 285 278 279 283 285 282 276 271 272 285 288 286
142 137 129 261 291 7 324 275 191 150 154 151 169 188 154 146 152 155 154 143 136 137 139 147 161 182 243 267 262 273 290 320 338 319 303 295 293 285 273 273 282 278 278 281
150 139 140 181 33 225 245 259 119 109 103 139 139 152 159 161 154 148 150 146 143 140 139 154 183 196 221 211 310 335 355 358 350 331 320 309 297 278 280 295 299 287 277 273
159 147 137 137 172 254 283 291 159 131 67 120 136 139 132 122 100 74 158 146 149 153 162 180 193 193 175 17 350 21 3 356 351 328 312 303 295 285 290 291 292 284 284 283
88 113 132 145 167 225 244 279 143 107 108 248 141 144 145 127 129 210 187 146 140 147 159 159 129 72 37 348 29 46 360 347 318 298 291 290 296 287 272 266 276 279 277 277
79 72 141 169 195 243 252 269 84 141 212 193 152 151 152 160 176 176 150 131 130 129 135 120 93 67 344 331 48 17 332 314 296 301 311 308 297 285 269 267 272 282 290 298
171 164 181 157 182 244 267 98 151 195 168 146 147 150 141 135 129 131 132 130 126 114 104 94 90 11 314 326 65 334 308 295 303 318 323 311 299 297 298 286 284 286 290 294
165 177 171 174 202 229 204 155 170 144 131 136 140 140 134 131 134 137 140 139 132 122 113 98 107 339 320 304 258 278 286 300 319 329 318 305 303 304 303 284 281 290 288 281
306 125 105 93 196 152 122 116 120 129 134 140 140 137 135 137 144 143 139 134 129 126 136 122 86 352 321 309 300 277 290 307 322 317 309 306 305 306 309 298 276 273 277 275
256 89 99 113 151 63 48 113 123 121 122 120 126 133 139 139 138 140 141 144 150 155 177 159 157 274 293 302 303 294 300 319 325 314 309 312 305 296 295 291 275 264 257 245
261 185 163 198 197 164 196 176 126 118 120 128 124 122 131 140 146 144 152 163 165 172 182 188 237 271 290 299 298 295 296 308 315 311 306 302 300 296 288 287 300 289 274 274
Height
1499 1505 1509 1504 1502 1503 1504 1507 1508 1502 1494 1498 1502 1504 1502 1501 1501 1503 1504 1504 1505 1507 1509 1509 1510 1511 1511 1511 1511 1510 1510 1510 1510 1510 1510 1509 1509 1509 1509 1509 1508 1508 1508 1508
1503 1505 1495 1494 1495 1497 1501 1505 1505 1500 1494 1498 1505 1506 1502 1500 1500 1500 1501 1502 1504 1506 1507 1509 1509 1509 1509 1509 1510 1510 1508 1508 1508 1508 1507 1507 1507 1507 1506 1506 1506 1505 1505 1505
1502 1495 1488 1491 1494 1497 1498 1501 1501 1501 1497 1498 1504 1511 1505 1502 1500 1501 1501 1502 1502 1503 1504 1507 1507 1507 1508 1508 1508 1508 1508 1507 1506 1506 1506 1506 1505 1504 1504 1503 1503 1502 1502 1502
1494 1487 1487 1490 1493 1493 1500 1490 1491 1495 1504 1511 1505 1523 1510 1504 1503 1501 1501 1501 1502 1503 1503 1504 1505 1505 1505 1506 1507 1507 1506 1506 1505 1505 1504 1503 1502 1501 1501 1501 1500 1500 1499 1499
1491 1485 1487 1489 1487 1486 1489 1485 1488 1492 1501 1509 1508 1519 1515 1504 1506 1503 1500 1500 1501 1501 1502 1502 1503 1503 1505 1505 1506 1506 1505 1505 1504 1503 1502 1502 1501 1500 1499 1499 1498 1497 1496 1496
1483 1479 1480 1481 1479 1479 1481 1487 1492 1498 1507 1520 1509 1516 1517 1507 1502 1500 1499 1498 1499 1500 1501 1501 1502 1503 1503 1504 1504 1504 1504 1503 1502 1501 1500 1499 1498 1498 1497 1495 1494 1494 1493 1493
1489 1481 1477 1477 1481 1481 1484 1502 1520 1522 1528 1523 1506 1513 1513 1498 1494 1494 1495 1496 1497 1498 1499 1499 1500 1501 1501 1502 1502 1502 1502 1501 1500 1498 1497 1496 1496 1495 1494 1493 1492 1491 1490 1490
1498 1496 1479 1475 1478 1484 1486 1497 1520 1530 1530 1522 1509 1514 1506 1494 1493 1492 1493 1494 1495 1497 1497 1498 1498 1499 1500 1500 1500 1500 1500 1499 1498 1496 1495 1494 1493 1493 1492 1491 1489 1488 1487 1487
1494 1493 1474 1471 1471 1476 1485 1492 1493 1510 1514 1522 1517 1508 1501 1494 1494 1493 1493 1494 1495 1495 1496 1497 1498 1498 1498 1499 1499 1499 1498 1497 1496 1494 1493 1492 1491 1490 1489 1488 1487 1485 1485 1484
1481 1489 1478 1471 1470 1472 1477 1483 1498 1509 1521 1527 1518 1512 1509 1499 1496 1493 1493 1493 1494 1494 1495 1496 1497 1497 1497 1498 1497 1497 1496 1494 1493 1492 1491 1489 1488 1487 1486 1485 1484 1482 1482 1481
1477 1489 1485 1477 1478 1480 1479 1485 1494 1505 1509 1522 1526 1516 1491 1492 1491 1492 1491 1492 1493 1494 1495 1495 1496 1496 1496 1496 1495 1494 1493 1492 1491 1490 1489 1487 1486 1485 1483 1482 1481 1479 1478 1477
1476 1488 1494 1483 1471 1468 1472 1479 1489 1505 1508 1509 1518 1513 1485 1487 1488 1490 1491 1491 1492 1493 1494 1494 1494 1495 1495 1494 1493 1492 1491 1489 1489 1488 1486 1485 1484 1482 1481 1479 1478 1476 1475 1474
1474 1488 1501 1495 1487 1476 1474 1473 1478 1490 1501 1508 1515 1508 1487 1487 1489 1489 1490 1491 1492 1493 1494 1494 1495 1494 1494 1493 1492 1491 1490 1488 1487 1486 1484 1483 1481 1480 1478 1477 1475 1473 1472 1470
1469 1485 1495 1500 1492 1481 1479 1474 1474 1486 1501 1504 1500 1498 1492 1489 1490 1490 1490 1491 1492 1492 1493 1493 1493 1493 1492 1492 1491 1490 1488 1487 1485 1483 1482 1480 1479 1477 1476 1474 1472 1470 1469 1468
1469 1482 1480 1478 1473 1472 1474 1474 1473 1479 1483 1491 1490 1491 1488 1486 1487 1489 1490 1491 1492 1492 1493 1492 1492 1491 1491 1490 1489 1488 1487 1485 1483 1481 1479 1477 1476 1475 1474 1472 1470 1468 1467 1465
1469 1478 1478 1479 1471 1470 1473 1470 1470 1472 1475 1480 1484 1488 1483 1485 1486 1488 1490 1490 1491 1492 1492 1491 1491 1490 1489 1489 1488 1486 1485 1483 1481 1479 1478 1476 1475 1473 1472 1470 1468 1466 1465 1463
1472 1477 1484 1488 1475 1474 1483 1473 1470 1472 1471 1476 1484 1484 1482 1485 1485 1487 1489 1490 1491 1491 1491 1491 1490 1489 1488 1487 1486 1485 1483 1481 1480 1478 1477 1475 1473 1471 1470 1468 1466 1464 1462 1461
1469 1476 1485 1488 1485 1495 1482 1465 1465 1469 1471 1470 1473 1476 1478 1481 1484 1486 1488 1488 1489 1490 1491 1490 1489 1488 1487 1486 1485 1483 1482 1481 1479 1477 1475 1474 1472 1470 1467 1465 1463 1461 1460 1458
1459 1470 1483 1491 1493 1488 1475 1467 1466 1471 1476 1472 1473 1476 1479 1481 1485 1487 1488 1487 1488 1489 1490 1490 1489 1488 1486 1485 1484 1483 1481 1480 1478 1476 1474 1472 1470 1468 1466 1464 1461 1460 1458 1456
1460 1464 1477 1486 1491 1493 1479 1465 1462 1468 1481 1473 1472 1475 1478 1480 1488 1489 1487 1487 1487 1488 1489 1489 1488 1487 1486 1485 1483 1482 1480 1478 1476 1474 1472 1470 1468 1466 1464 1462 1460 1458 1456 1454
1470 1472 1477 1483 1487 1481 1467 1462 1463 1479 1479 1472 1471 1473 1476 1478 1480 1483 1485 1486 1487 1487 1488 1488 1487 1486 1485 1484 1482 1481 1479 1477 1475 1473 1471 1469 1467 1464 1462 1461 1458 1456 1454 1452
1470 1475 1478 1481 1486 1483 1462 1462 1467 1469 1466 1468 1470 1472 1475 1477 1479 1482 1484 1485 1486 1487 1487 1486 1486 1485 1484 1483 1481 1479 1477 1476 1474 1471 1469 1467 1465 1463 1461 1459 1456 1454 1452 1450
1464 1466 1469 1473 1475 1465 1461 1462 1463 1463 1465 1468 1470 1472 1474 1476 1479 1481 1483 1484 1485 1486 1485 1485 1485 1484 1483 1482 1480 1478 1476 1474 1472 1470 1467 1465 1463 1461 1459 1456 1454 1452 1450 1448
1460 1459 1464 1468 1466 1463 1463 1463 1464 1464 1465 1467 1469 1472 1474 1476 1478 1480 1482 1483 1484 1484 1485 1484 1484 1483 1481 1480 1479 1477 1475 1473 1470 1468 1465 1463 1461 1459 1456 1454 1452 1450 1447 1445
1461 1459 1464 1467 1466 1465 1465 1465 1465 1465 1466 1468 1469 1471 1473 1476 1478 1480 1481 1482 1483 1484 1484 1483 1482 1481 1480 1479 1477 1475 1473 1471 1468 1466 1463 1461 1459 1456 1454 1452 1450 1447 1445 1443
1458 1460 1463 1466 1462 1464 1465 1465 1465 1466 1467 1468 1469 1472 1473 1475 1477 1479 1480 1481 1482 1482 1482 1481 1480 1479 1478 1477 1475 1473 1471 1469 1466 1463 1461 1458 1456 1454 1452 1449 1447 1445 1443 1441